Time,TemperatureF,DewpointF,PressureIn,WindDirection,WindDirectionDegrees,WindSpeedMPH,WindSpeedGustMPH,Humidity,HourlyPrecipIn,Conditions,Clouds,dailyrainin,SoftwareType,DateUTC
2013-02-14 00:02:00,33.4,26.4,29.72,North,-999,-999.0,-999.0,75,0.00,,,0.00,meteohub,2013-02-14 06:02:00,
2013-02-14 00:07:00,33.4,26.4,29.72,North,-999,-999.0,-999.0,75,0.00,,,0.00,meteohub,2013-02-14 06:07:00,
2013-02-14 00:12:00,33.6,26.6,29.71,North,-999,-999.0,-999.0,75,0.00,,,0.00,meteohub,2013-02-14 06:12:00,
2013-02-14 00:17:00,33.6,26.6,29.72,North,-999,-999.0,-999.0,75,0.00,,,0.00,meteohub,2013-02-14 06:17:00,
2013-02-14 00:22:00,33.6,26.6,29.71,North,-999,-999.0,-999.0,75,0.00,,,0.00,meteohub,2013-02-14 06:22:00,
2013-02-14 00:27:00,33.8,26.4,29.71,North,-999,-999.0,-999.0,74,0.00,,,0.00,meteohub,2013-02-14 06:27:00,
2013-02-14 00:32:00,34.0,26.6,29.71,North,-999,-999.0,-999.0,74,0.00,,,0.00,meteohub,2013-02-14 06:32:00,
2013-02-14 00:37:00,34.0,26.6,29.71,North,-999,-999.0,-999.0,74,0.00,,,0.00,meteohub,2013-02-14 06:37:00,
2013-02-14 00:42:00,34.0,26.6,29.70,North,-999,-999.0,-999.0,74,0.00,,,0.00,meteohub,2013-02-14 06:42:00,
2013-02-14 00:47:00,33.8,26.4,29.70,North,-999,-999.0,-999.0,74,0.00,,,0.00,meteohub,2013-02-14 06:47:00,
2013-02-14 00:52:00,33.6,26.6,29.70,North,-999,-999.0,-999.0,75,0.00,,,0.00,meteohub,2013-02-14 06:52:00,
2013-02-14 00:57:00,33.4,26.8,29.70,North,-999,-999.0,-999.0,76,0.00,,,0.00,meteohub,2013-02-14 06:57:00,
2013-02-14 01:02:00,33.3,26.6,29.70,North,-999,-999.0,-999.0,76,0.00,,,0.00,meteohub,2013-02-14 07:02:00,
2013-02-14 01:07:00,33.3,26.8,29.70,North,-999,-999.0,-999.0,77,0.00,,,0.00,meteohub,2013-02-14 07:07:00,
2013-02-14 01:12:00,33.4,27.3,29.70,North,-999,-999.0,-999.0,78,0.00,,,0.00,meteohub,2013-02-14 07:12:00,
2013-02-14 01:17:00,33.4,27.3,29.70,North,-999,-999.0,-999.0,78,0.00,,,0.00,meteohub,2013-02-14 07:17:00,
2013-02-14 01:22:00,33.4,27.3,29.70,North,-999,-999.0,-999.0,78,0.00,,,0.00,meteohub,2013-02-14 07:22:00,
2013-02-14 01:27:00,33.4,27.3,29.69,North,-999,-999.0,-999.0,78,0.00,,,0.00,meteohub,2013-02-14 07:27:00,
2013-02-14 01:32:00,33.4,27.3,29.69,North,-999,-999.0,-999.0,78,0.00,,,0.00,meteohub,2013-02-14 07:32:00,
2013-02-14 01:37:00,33.6,27.9,29.69,North,-999,-999.0,-999.0,79,0.00,,,0.00,meteohub,2013-02-14 07:37:00,
2013-02-14 01:42:00,33.6,27.9,29.69,North,-999,-999.0,-999.0,79,0.00,,,0.00,meteohub,2013-02-14 07:42:00,
2013-02-14 01:47:00,33.6,27.9,29.69,North,-999,-999.0,-999.0,79,0.00,,,0.00,meteohub,2013-02-14 07:47:00,
2013-02-14 01:52:00,33.6,27.9,29.69,North,-999,-999.0,-999.0,79,0.00,,,0.00,meteohub,2013-02-14 07:52:00,
2013-02-14 01:57:00,33.8,28.0,29.68,North,-999,-999.0,-999.0,79,0.00,,,0.00,meteohub,2013-02-14 07:57:00,
2013-02-14 02:02:00,33.8,28.0,29.68,North,-999,-999.0,-999.0,79,0.00,,,0.00,meteohub,2013-02-14 08:02:00,
2013-02-14 02:07:00,33.8,28.0,29.68,North,-999,-999.0,-999.0,79,0.00,,,0.00,meteohub,2013-02-14 08:07:00,
2013-02-14 02:12:00,33.8,28.0,29.67,North,-999,-999.0,-999.0,79,0.00,,,0.00,meteohub,2013-02-14 08:12:00,
2013-02-14 02:17:00,33.8,28.2,29.67,North,-999,-999.0,-999.0,80,0.00,,,0.00,meteohub,2013-02-14 08:17:00,
2013-02-14 02:22:00,33.8,28.2,29.67,North,-999,-999.0,-999.0,80,0.00,,,0.00,meteohub,2013-02-14 08:22:00,
2013-02-14 02:27:00,33.8,28.2,29.67,North,-999,-999.0,-999.0,80,0.00,,,0.00,meteohub,2013-02-14 08:27:00,
2013-02-14 02:32:00,33.8,28.2,29.66,North,-999,-999.0,-999.0,80,0.00,,,0.00,meteohub,2013-02-14 08:32:00,
2013-02-14 02:37:00,33.8,28.2,29.66,North,-999,-999.0,-999.0,80,0.00,,,0.00,meteohub,2013-02-14 08:37:00,
2013-02-14 02:42:00,33.8,28.6,29.66,North,-999,-999.0,-999.0,81,0.00,,,0.00,meteohub,2013-02-14 08:42:00,
2013-02-14 02:47:00,33.8,28.6,29.66,North,-999,-999.0,-999.0,81,0.00,,,0.00,meteohub,2013-02-14 08:47:00,
2013-02-14 02:52:00,33.8,28.6,29.66,North,-999,-999.0,-999.0,81,0.00,,,0.00,meteohub,2013-02-14 08:52:00,
2013-02-14 02:57:00,33.8,28.9,29.65,North,-999,-999.0,-999.0,82,0.00,,,0.00,meteohub,2013-02-14 08:57:00,
2013-02-14 03:02:00,33.8,28.9,29.65,North,-999,-999.0,-999.0,82,0.01,,,0.01,meteohub,2013-02-14 09:02:00,
2013-02-14 03:07:00,33.8,29.1,29.65,North,-999,-999.0,-999.0,83,0.01,,,0.01,meteohub,2013-02-14 09:07:00,
2013-02-14 03:12:00,33.8,29.1,29.65,North,-999,-999.0,-999.0,83,0.01,,,0.01,meteohub,2013-02-14 09:12:00,
2013-02-14 03:17:00,33.6,29.3,29.64,North,-999,-999.0,-999.0,84,0.01,,,0.01,meteohub,2013-02-14 09:17:00,
2013-02-14 03:22:00,33.6,29.7,29.64,North,-999,-999.0,-999.0,85,0.01,,,0.01,meteohub,2013-02-14 09:22:00,
2013-02-14 03:27:00,33.6,29.7,29.64,North,-999,-999.0,-999.0,85,0.01,,,0.01,meteohub,2013-02-14 09:27:00,
2013-02-14 03:32:00,33.6,29.8,29.63,North,-999,-999.0,-999.0,86,0.01,,,0.01,meteohub,2013-02-14 09:32:00,
2013-02-14 03:37:00,33.8,29.8,29.63,North,-999,-999.0,-999.0,85,0.01,,,0.01,meteohub,2013-02-14 09:37:00,
2013-02-14 03:42:00,33.8,29.8,29.62,North,-999,-999.0,-999.0,85,0.01,,,0.01,meteohub,2013-02-14 09:42:00,
2013-02-14 03:47:00,33.8,29.8,29.62,North,-999,-999.0,-999.0,85,0.01,,,0.01,meteohub,2013-02-14 09:47:00,
2013-02-14 03:52:00,33.8,29.8,29.62,North,-999,-999.0,-999.0,85,0.01,,,0.01,meteohub,2013-02-14 09:52:00,
2013-02-14 03:57:00,33.8,29.8,29.61,North,-999,-999.0,-999.0,85,0.00,,,0.01,meteohub,2013-02-14 09:57:00,
2013-02-14 04:02:00,33.8,30.0,29.61,North,-999,-999.0,-999.0,86,0.00,,,0.01,meteohub,2013-02-14 10:02:00,
2013-02-14 04:07:00,33.8,30.0,29.61,North,-999,-999.0,-999.0,86,0.00,,,0.01,meteohub,2013-02-14 10:07:00,
2013-02-14 04:12:00,34.0,30.0,29.61,North,-999,-999.0,-999.0,85,0.00,,,0.01,meteohub,2013-02-14 10:12:00,
2013-02-14 04:17:00,34.0,30.0,29.61,North,-999,-999.0,-999.0,85,0.00,,,0.01,meteohub,2013-02-14 10:17:00,
2013-02-14 04:22:00,34.2,29.8,29.61,North,-999,-999.0,-999.0,84,0.00,,,0.01,meteohub,2013-02-14 10:22:00,
2013-02-14 04:27:00,34.2,29.8,29.60,North,-999,-999.0,-999.0,84,0.00,,,0.01,meteohub,2013-02-14 10:27:00,
2013-02-14 04:32:00,34.3,29.7,29.60,North,-999,-999.0,-999.0,83,0.00,,,0.01,meteohub,2013-02-14 10:32:00,
2013-02-14 04:37:00,34.3,29.7,29.60,North,-999,-999.0,-999.0,83,0.00,,,0.01,meteohub,2013-02-14 10:37:00,
2013-02-14 04:42:00,34.3,29.5,29.60,North,-999,-999.0,-999.0,82,0.00,,,0.01,meteohub,2013-02-14 10:42:00,
2013-02-14 04:47:00,34.5,29.7,29.60,North,-999,-999.0,-999.0,82,0.00,,,0.01,meteohub,2013-02-14 10:47:00,
2013-02-14 04:52:00,34.5,29.7,29.60,North,-999,-999.0,-999.0,82,0.00,,,0.01,meteohub,2013-02-14 10:52:00,
2013-02-14 04:57:00,34.3,29.1,29.60,North,-999,-999.0,-999.0,81,0.00,,,0.01,meteohub,2013-02-14 10:57:00,
2013-02-14 05:02:00,34.2,28.9,29.60,North,-999,-999.0,-999.0,81,0.00,,,0.01,meteohub,2013-02-14 11:02:00,
2013-02-14 05:07:00,34.2,28.9,29.60,North,-999,-999.0,-999.0,81,0.00,,,0.01,meteohub,2013-02-14 11:07:00,
2013-02-14 05:12:00,34.2,28.9,29.60,North,-999,-999.0,-999.0,81,0.00,,,0.01,meteohub,2013-02-14 11:12:00,
2013-02-14 05:17:00,34.2,28.9,29.60,North,-999,-999.0,-999.0,81,0.00,,,0.01,meteohub,2013-02-14 11:17:00,
2013-02-14 05:22:00,34.0,28.8,29.60,North,-999,-999.0,-999.0,81,0.00,,,0.01,meteohub,2013-02-14 11:22:00,
2013-02-14 05:27:00,34.0,28.8,29.60,North,-999,-999.0,-999.0,81,0.00,,,0.01,meteohub,2013-02-14 11:27:00,
2013-02-14 05:32:00,34.0,28.8,29.60,North,-999,-999.0,-999.0,81,0.00,,,0.01,meteohub,2013-02-14 11:32:00,
2013-02-14 05:37:00,34.0,28.8,29.60,North,-999,-999.0,-999.0,81,0.00,,,0.01,meteohub,2013-02-14 11:37:00,
2013-02-14 05:42:00,34.0,28.8,29.60,North,-999,-999.0,-999.0,81,0.00,,,0.01,meteohub,2013-02-14 11:42:00,
2013-02-14 05:47:00,34.0,28.8,29.60,North,-999,-999.0,-999.0,81,0.00,,,0.01,meteohub,2013-02-14 11:47:00,
2013-02-14 05:52:00,34.0,28.8,29.60,North,-999,-999.0,-999.0,81,0.00,,,0.01,meteohub,2013-02-14 11:52:00,
2013-02-14 05:57:00,34.0,28.8,29.60,North,-999,-999.0,-999.0,81,0.00,,,0.01,meteohub,2013-02-14 11:57:00,
2013-02-14 06:02:00,34.0,28.8,29.60,North,-999,-999.0,-999.0,81,0.00,,,0.01,meteohub,2013-02-14 12:02:00,
2013-02-14 06:07:00,34.0,28.8,29.60,North,-999,-999.0,-999.0,81,0.00,,,0.01,meteohub,2013-02-14 12:07:00,
2013-02-14 06:12:00,34.0,28.4,29.60,North,-999,-999.0,-999.0,80,0.00,,,0.01,meteohub,2013-02-14 12:12:00,
2013-02-14 06:17:00,34.0,28.4,29.60,North,-999,-999.0,-999.0,80,0.00,,,0.01,meteohub,2013-02-14 12:17:00,
2013-02-14 06:22:00,34.0,28.4,29.60,North,-999,-999.0,-999.0,80,0.00,,,0.01,meteohub,2013-02-14 12:22:00,
2013-02-14 06:27:00,34.0,28.4,29.59,North,-999,-999.0,-999.0,80,0.00,,,0.01,meteohub,2013-02-14 12:27:00,
2013-02-14 06:32:00,34.0,28.4,29.60,North,-999,-999.0,-999.0,80,0.00,,,0.01,meteohub,2013-02-14 12:32:00,
2013-02-14 06:37:00,34.0,28.4,29.60,North,-999,-999.0,-999.0,80,0.00,,,0.01,meteohub,2013-02-14 12:37:00,
2013-02-14 06:42:00,34.0,28.4,29.60,North,-999,-999.0,-999.0,80,0.00,,,0.01,meteohub,2013-02-14 12:42:00,
2013-02-14 06:47:00,34.0,28.4,29.60,North,-999,-999.0,-999.0,80,0.00,,,0.01,meteohub,2013-02-14 12:47:00,
2013-02-14 06:52:00,34.2,28.6,29.60,North,-999,-999.0,-999.0,80,0.00,,,0.01,meteohub,2013-02-14 12:52:00,
2013-02-14 06:57:00,34.2,28.6,29.60,South,180,0.0,0.0,80,0.00,,,0.01,meteohub,2013-02-14 12:57:00,
2013-02-14 07:02:00,34.3,28.8,29.60,North,-999,-999.0,0.0,80,0.00,,,0.01,meteohub,2013-02-14 13:02:00,
2013-02-14 07:07:00,34.3,28.8,29.60,North,-999,-999.0,0.0,80,0.00,,,0.01,meteohub,2013-02-14 13:07:00,
2013-02-14 07:12:00,34.5,28.8,29.60,North,-999,-999.0,-999.0,79,0.00,,,0.01,meteohub,2013-02-14 13:12:00,
2013-02-14 07:17:00,34.7,28.9,29.60,SW,225,0.0,-999.0,79,0.00,,,0.01,meteohub,2013-02-14 13:17:00,
2013-02-14 07:22:00,34.7,28.9,29.60,SW,225,0.0,0.0,79,0.00,,,0.01,meteohub,2013-02-14 13:22:00,
2013-02-14 07:27:00,34.9,29.1,29.60,North,-999,-999.0,0.0,79,0.00,,,0.01,meteohub,2013-02-14 13:27:00,
2013-02-14 07:32:00,35.1,28.9,29.60,North,-999,-999.0,0.0,78,0.00,,,0.01,meteohub,2013-02-14 13:32:00,
2013-02-14 07:37:00,35.1,28.9,29.60,North,-999,-999.0,-999.0,78,0.00,,,0.01,meteohub,2013-02-14 13:37:00,
2013-02-14 07:42:00,35.2,28.8,29.61,North,-999,-999.0,-999.0,77,0.00,,,0.01,meteohub,2013-02-14 13:42:00,
2013-02-14 07:47:00,35.2,28.8,29.61,West,270,0.0,0.0,77,0.00,,,0.01,meteohub,2013-02-14 13:47:00,
2013-02-14 07:52:00,35.2,28.8,29.61,North,-999,-999.0,0.0,77,0.00,,,0.01,meteohub,2013-02-14 13:52:00,
2013-02-14 07:57:00,35.4,28.9,29.61,North,-999,-999.0,0.0,77,0.00,,,0.01,meteohub,2013-02-14 13:57:00,
2013-02-14 08:02:00,35.4,28.9,29.61,North,-999,-999.0,-999.0,77,0.00,,,0.01,meteohub,2013-02-14 14:02:00,
2013-02-14 08:07:00,35.2,28.8,29.61,North,-999,-999.0,-999.0,77,0.00,,,0.01,meteohub,2013-02-14 14:07:00,
2013-02-14 08:12:00,35.4,28.9,29.61,North,-999,-999.0,-999.0,77,0.00,,,0.01,meteohub,2013-02-14 14:12:00,
2013-02-14 08:17:00,35.4,28.9,29.61,North,-999,-999.0,-999.0,77,0.00,,,0.01,meteohub,2013-02-14 14:17:00,
2013-02-14 08:22:00,35.4,28.9,29.61,SW,225,0.0,-999.0,77,0.00,,,0.01,meteohub,2013-02-14 14:22:00,
2013-02-14 08:27:00,35.2,28.8,29.61,North,0,0.0,0.0,77,0.00,,,0.01,meteohub,2013-02-14 14:27:00,
2013-02-14 08:32:00,35.2,28.8,29.61,SW,225,0.0,0.0,77,0.00,,,0.01,meteohub,2013-02-14 14:32:00,
2013-02-14 08:37:00,35.2,29.1,29.61,SW,225,0.0,0.0,78,0.00,,,0.01,meteohub,2013-02-14 14:37:00,
2013-02-14 08:42:00,35.2,29.1,29.61,North,-999,-999.0,0.0,78,0.00,,,0.01,meteohub,2013-02-14 14:42:00,
2013-02-14 08:47:00,35.2,29.1,29.61,North,-999,-999.0,0.0,78,0.00,,,0.01,meteohub,2013-02-14 14:47:00,
2013-02-14 08:52:00,35.2,29.1,29.61,North,-999,-999.0,-999.0,78,0.00,,,0.01,meteohub,2013-02-14 14:52:00,
2013-02-14 08:57:00,35.2,29.3,29.61,North,-999,-999.0,-999.0,79,0.00,,,0.01,meteohub,2013-02-14 14:57:00,
2013-02-14 09:02:00,35.2,29.3,29.61,North,-999,-999.0,-999.0,79,0.00,,,0.01,meteohub,2013-02-14 15:02:00,
2013-02-14 09:07:00,35.2,29.3,29.61,North,-999,-999.0,-999.0,79,0.00,,,0.01,meteohub,2013-02-14 15:07:00,
2013-02-14 09:12:00,35.2,29.3,29.61,North,-999,-999.0,-999.0,79,0.00,,,0.01,meteohub,2013-02-14 15:12:00,
2013-02-14 09:17:00,35.2,29.3,29.61,North,-999,-999.0,-999.0,79,0.00,,,0.01,meteohub,2013-02-14 15:17:00,
2013-02-14 09:22:00,35.2,29.3,29.62,North,-999,-999.0,-999.0,79,0.00,,,0.01,meteohub,2013-02-14 15:22:00,
2013-02-14 09:27:00,35.2,29.3,29.61,North,-999,-999.0,-999.0,79,0.00,,,0.01,meteohub,2013-02-14 15:27:00,
2013-02-14 09:32:00,35.1,29.5,29.62,North,-999,-999.0,-999.0,80,0.00,,,0.01,meteohub,2013-02-14 15:32:00,
2013-02-14 09:37:00,34.9,29.3,29.62,North,-999,-999.0,-999.0,80,0.00,,,0.01,meteohub,2013-02-14 15:37:00,
2013-02-14 09:42:00,34.9,29.7,29.62,North,-999,-999.0,-999.0,81,0.00,,,0.01,meteohub,2013-02-14 15:42:00,
2013-02-14 09:47:00,34.9,29.7,29.62,North,-999,-999.0,-999.0,81,0.00,,,0.01,meteohub,2013-02-14 15:47:00,
2013-02-14 09:52:00,34.7,29.8,29.62,North,-999,-999.0,-999.0,82,0.00,,,0.01,meteohub,2013-02-14 15:52:00,
2013-02-14 09:57:00,34.9,30.2,29.62,North,-999,-999.0,-999.0,83,0.00,,,0.01,meteohub,2013-02-14 15:57:00,
2013-02-14 10:02:00,34.7,30.0,29.63,North,-999,-999.0,-999.0,83,0.00,,,0.01,meteohub,2013-02-14 16:02:00,
2013-02-14 10:07:00,34.7,30.4,29.62,North,-999,-999.0,-999.0,84,0.00,,,0.01,meteohub,2013-02-14 16:07:00,
2013-02-14 10:12:00,34.7,30.4,29.63,North,-999,-999.0,-999.0,84,0.00,,,0.01,meteohub,2013-02-14 16:12:00,
2013-02-14 10:17:00,34.7,30.7,29.62,North,-999,-999.0,-999.0,85,0.00,,,0.01,meteohub,2013-02-14 16:17:00,
2013-02-14 10:22:00,34.7,30.7,29.62,North,-999,-999.0,-999.0,85,0.00,,,0.01,meteohub,2013-02-14 16:22:00,
2013-02-14 10:27:00,34.7,30.9,29.63,North,-999,-999.0,-999.0,86,0.01,,,0.02,meteohub,2013-02-14 16:27:00,
2013-02-14 10:32:00,34.7,31.3,29.63,North,-999,-999.0,-999.0,87,0.01,,,0.02,meteohub,2013-02-14 16:32:00,
2013-02-14 10:37:00,34.9,31.5,29.63,North,-999,-999.0,-999.0,87,0.01,,,0.02,meteohub,2013-02-14 16:37:00,
2013-02-14 10:42:00,34.9,31.5,29.64,North,-999,-999.0,-999.0,87,0.01,,,0.02,meteohub,2013-02-14 16:42:00,
2013-02-14 10:47:00,34.9,31.6,29.63,North,-999,-999.0,-999.0,88,0.01,,,0.02,meteohub,2013-02-14 16:47:00,
2013-02-14 10:52:00,34.9,31.6,29.64,North,-999,-999.0,-999.0,88,0.01,,,0.02,meteohub,2013-02-14 16:52:00,
2013-02-14 10:57:00,34.9,31.6,29.64,North,-999,-999.0,-999.0,88,0.01,,,0.02,meteohub,2013-02-14 16:57:00,
2013-02-14 11:02:00,35.1,31.8,29.64,North,-999,-999.0,-999.0,88,0.01,,,0.02,meteohub,2013-02-14 17:02:00,
2013-02-14 11:07:00,35.2,32.0,29.64,North,-999,-999.0,-999.0,88,0.01,,,0.02,meteohub,2013-02-14 17:07:00,
2013-02-14 11:12:00,35.4,32.2,29.64,North,-999,-999.0,-999.0,88,0.01,,,0.02,meteohub,2013-02-14 17:12:00,
2013-02-14 11:17:00,35.6,32.2,29.64,North,-999,-999.0,-999.0,87,0.01,,,0.02,meteohub,2013-02-14 17:17:00,
2013-02-14 11:22:00,35.6,32.2,29.65,North,-999,-999.0,-999.0,87,0.00,,,0.02,meteohub,2013-02-14 17:22:00,
2013-02-14 11:27:00,35.4,32.0,29.65,North,-999,-999.0,-999.0,87,0.00,,,0.02,meteohub,2013-02-14 17:27:00,
2013-02-14 11:32:00,35.2,31.8,29.65,North,-999,-999.0,-999.0,87,0.00,,,0.02,meteohub,2013-02-14 17:32:00,
2013-02-14 11:37:00,35.2,31.8,29.65,North,-999,-999.0,-999.0,87,0.00,,,0.02,meteohub,2013-02-14 17:37:00,
2013-02-14 11:42:00,35.2,31.8,29.65,North,-999,-999.0,-999.0,87,0.00,,,0.02,meteohub,2013-02-14 17:42:00,
2013-02-14 11:47:00,35.1,31.3,29.65,North,-999,-999.0,-999.0,86,0.00,,,0.02,meteohub,2013-02-14 17:47:00,
2013-02-14 11:52:00,35.1,31.3,29.66,North,-999,-999.0,-999.0,86,0.00,,,0.02,meteohub,2013-02-14 17:52:00,
2013-02-14 11:57:00,35.1,30.9,29.66,North,-999,-999.0,-999.0,85,0.00,,,0.02,meteohub,2013-02-14 17:57:00,
2013-02-14 12:02:00,35.1,30.9,29.66,North,-999,-999.0,-999.0,85,0.00,,,0.02,meteohub,2013-02-14 18:02:00,
2013-02-14 12:07:00,34.9,30.6,29.66,North,-999,-999.0,-999.0,84,0.00,,,0.02,meteohub,2013-02-14 18:07:00,
2013-02-14 12:12:00,34.7,30.0,29.66,North,-999,-999.0,-999.0,83,0.00,,,0.02,meteohub,2013-02-14 18:12:00,
2013-02-14 12:17:00,34.5,29.3,29.67,North,-999,-999.0,-999.0,81,0.00,,,0.02,meteohub,2013-02-14 18:17:00,
2013-02-14 12:22:00,34.5,28.9,29.67,North,-999,-999.0,-999.0,80,0.00,,,0.02,meteohub,2013-02-14 18:22:00,
2013-02-14 12:27:00,34.5,28.9,29.67,North,-999,-999.0,-999.0,80,0.00,,,0.02,meteohub,2013-02-14 18:27:00,
2013-02-14 12:37:00,34.5,28.9,29.67,North,-999,-999.0,-999.0,80,0.00,,,0.02,meteohub,2013-02-14 18:37:00,
2013-02-14 12:42:00,34.5,28.8,29.68,North,-999,-999.0,-999.0,79,0.00,,,0.02,meteohub,2013-02-14 18:42:00,
2013-02-14 12:47:00,34.3,28.6,29.68,North,-999,-999.0,-999.0,79,0.00,,,0.02,meteohub,2013-02-14 18:47:00,
2013-02-14 12:52:00,34.2,28.4,29.69,North,-999,-999.0,-999.0,79,0.00,,,0.02,meteohub,2013-02-14 18:52:00,
2013-02-14 12:57:00,34.0,28.2,29.69,North,-999,-999.0,-999.0,79,0.00,,,0.02,meteohub,2013-02-14 18:57:00,
2013-02-14 13:02:00,33.8,28.0,29.70,North,-999,-999.0,-999.0,79,0.00,,,0.02,meteohub,2013-02-14 19:02:00,
2013-02-14 13:07:00,33.4,27.7,29.70,North,-999,-999.0,-999.0,79,0.00,,,0.02,meteohub,2013-02-14 19:07:00,
2013-02-14 13:12:00,33.4,27.7,29.70,North,-999,-999.0,-999.0,79,0.00,,,0.02,meteohub,2013-02-14 19:12:00,
2013-02-14 13:17:00,33.3,27.7,29.70,North,-999,-999.0,-999.0,80,0.00,,,0.02,meteohub,2013-02-14 19:17:00,
2013-02-14 13:22:00,33.3,27.7,29.71,North,-999,-999.0,-999.0,80,0.01,,,0.04,meteohub,2013-02-14 19:22:00,
2013-02-14 13:27:00,33.3,27.5,29.71,North,-999,-999.0,-999.0,79,0.01,,,0.04,meteohub,2013-02-14 19:27:00,
2013-02-14 13:32:00,33.4,27.3,29.72,North,-999,-999.0,-999.0,78,0.01,,,0.04,meteohub,2013-02-14 19:32:00,
2013-02-14 13:37:00,33.8,27.0,29.72,North,-999,-999.0,-999.0,76,0.01,,,0.04,meteohub,2013-02-14 19:37:00,
2013-02-14 13:42:00,33.8,26.8,29.72,North,-999,-999.0,-999.0,75,0.01,,,0.04,meteohub,2013-02-14 19:42:00,
2013-02-14 13:47:00,33.6,26.8,29.73,North,-999,-999.0,-999.0,76,0.01,,,0.04,meteohub,2013-02-14 19:47:00,
2013-02-14 13:52:00,33.4,26.8,29.73,North,-999,-999.0,-999.0,76,0.01,,,0.04,meteohub,2013-02-14 19:52:00,
2013-02-14 13:57:00,33.1,26.4,29.74,North,-999,-999.0,-999.0,76,0.01,,,0.04,meteohub,2013-02-14 19:57:00,
2013-02-14 14:02:00,33.1,26.4,29.75,North,-999,-999.0,-999.0,76,0.01,,,0.04,meteohub,2013-02-14 20:02:00,
2013-02-14 14:07:00,32.9,26.2,29.74,North,-999,-999.0,-999.0,76,0.01,,,0.04,meteohub,2013-02-14 20:07:00,
2013-02-14 14:12:00,32.9,26.2,29.75,North,-999,-999.0,-999.0,76,0.01,,,0.04,meteohub,2013-02-14 20:12:00,
2013-02-14 14:17:00,32.9,26.2,29.75,North,-999,-999.0,-999.0,76,0.01,,,0.04,meteohub,2013-02-14 20:17:00,
2013-02-14 14:22:00,32.7,25.7,29.75,North,-999,-999.0,-999.0,75,0.00,,,0.04,meteohub,2013-02-14 20:22:00,
2013-02-14 14:27:00,32.7,25.7,29.75,North,-999,-999.0,-999.0,75,0.00,,,0.04,meteohub,2013-02-14 20:27:00,
2013-02-14 14:32:00,32.7,25.7,29.75,North,-999,-999.0,-999.0,75,0.00,,,0.04,meteohub,2013-02-14 20:32:00,
2013-02-14 14:37:00,32.7,25.3,29.76,North,-999,-999.0,-999.0,74,0.00,,,0.04,meteohub,2013-02-14 20:37:00,
2013-02-14 14:42:00,32.7,25.3,29.77,North,-999,-999.0,-999.0,74,0.00,,,0.04,meteohub,2013-02-14 20:42:00,
2013-02-14 14:47:00,32.7,25.3,29.77,North,-999,-999.0,-999.0,74,0.00,,,0.04,meteohub,2013-02-14 20:47:00,
2013-02-14 14:52:00,32.7,25.0,29.78,North,-999,-999.0,-999.0,73,0.00,,,0.04,meteohub,2013-02-14 20:52:00,
2013-02-14 14:57:00,32.7,25.0,29.78,North,-999,-999.0,-999.0,73,0.00,,,0.04,meteohub,2013-02-14 20:57:00,
2013-02-14 15:02:00,32.7,25.0,29.78,North,-999,-999.0,-999.0,73,0.00,,,0.04,meteohub,2013-02-14 21:02:00,
2013-02-14 15:07:00,32.5,24.8,29.79,North,-999,-999.0,-999.0,73,0.00,,,0.04,meteohub,2013-02-14 21:07:00,
2013-02-14 15:12:00,32.4,24.6,29.79,North,-999,-999.0,-999.0,73,0.00,,,0.04,meteohub,2013-02-14 21:12:00,
2013-02-14 15:17:00,32.4,24.6,29.80,North,-999,-999.0,-999.0,73,0.00,,,0.04,meteohub,2013-02-14 21:17:00,
2013-02-14 15:22:00,32.4,24.3,29.80,North,-999,-999.0,-999.0,72,0.00,,,0.04,meteohub,2013-02-14 21:22:00,
2013-02-14 15:27:00,32.2,24.3,29.81,North,-999,-999.0,-999.0,72,0.00,,,0.04,meteohub,2013-02-14 21:27:00,
2013-02-14 15:32:00,32.2,23.9,29.81,North,-999,-999.0,-999.0,71,0.00,,,0.04,meteohub,2013-02-14 21:32:00,
2013-02-14 15:37:00,32.2,23.9,29.82,North,-999,-999.0,-999.0,71,0.00,,,0.04,meteohub,2013-02-14 21:37:00,
2013-02-14 15:42:00,32.0,23.7,29.82,North,-999,-999.0,-999.0,71,0.00,,,0.04,meteohub,2013-02-14 21:42:00,
2013-02-14 15:47:00,32.0,23.7,29.82,North,-999,-999.0,-999.0,71,0.00,,,0.04,meteohub,2013-02-14 21:47:00,
2013-02-14 15:52:00,31.8,23.9,29.83,North,-999,-999.0,-999.0,72,0.00,,,0.04,meteohub,2013-02-14 21:52:00,
2013-02-14 15:57:00,31.8,23.9,29.83,North,-999,-999.0,-999.0,72,0.00,,,0.04,meteohub,2013-02-14 21:57:00,
2013-02-14 16:02:00,31.8,23.5,29.84,North,-999,-999.0,-999.0,71,0.00,,,0.04,meteohub,2013-02-14 22:02:00,
2013-02-14 16:07:00,31.6,23.7,29.84,North,-999,-999.0,-999.0,72,0.00,,,0.04,meteohub,2013-02-14 22:07:00,
2013-02-14 16:12:00,31.5,23.5,29.85,North,-999,-999.0,-999.0,72,0.00,,,0.04,meteohub,2013-02-14 22:12:00,
2013-02-14 16:17:00,31.3,23.7,29.85,North,-999,-999.0,-999.0,73,0.00,,,0.04,meteohub,2013-02-14 22:17:00,
2013-02-14 16:22:00,31.1,23.5,29.85,North,-999,-999.0,-999.0,73,0.00,,,0.04,meteohub,2013-02-14 22:22:00,
2013-02-14 16:27:00,30.9,23.4,29.86,North,-999,-999.0,-999.0,73,0.00,,,0.04,meteohub,2013-02-14 22:27:00,
2013-02-14 16:32:00,30.9,23.4,29.86,North,-999,-999.0,-999.0,73,0.00,,,0.04,meteohub,2013-02-14 22:32:00,
2013-02-14 16:37:00,30.7,23.2,29.87,North,-999,-999.0,-999.0,73,0.00,,,0.04,meteohub,2013-02-14 22:37:00,
2013-02-14 16:42:00,30.7,23.2,29.88,North,-999,-999.0,-999.0,73,0.00,,,0.04,meteohub,2013-02-14 22:42:00,
2013-02-14 16:47:00,30.7,23.2,29.87,North,-999,-999.0,-999.0,73,0.00,,,0.04,meteohub,2013-02-14 22:47:00,
2013-02-14 16:52:00,30.9,23.4,29.88,North,-999,-999.0,-999.0,73,0.00,,,0.04,meteohub,2013-02-14 22:52:00,
2013-02-14 16:57:00,30.9,23.4,29.88,North,-999,-999.0,-999.0,73,0.00,,,0.04,meteohub,2013-02-14 22:57:00,
2013-02-14 17:02:00,30.9,23.0,29.88,North,-999,-999.0,-999.0,72,0.00,,,0.04,meteohub,2013-02-14 23:02:00,
2013-02-14 17:07:00,31.1,23.2,29.89,North,-999,-999.0,-999.0,72,0.00,,,0.04,meteohub,2013-02-14 23:07:00,
2013-02-14 17:12:00,31.1,22.8,29.89,North,-999,-999.0,-999.0,71,0.00,,,0.04,meteohub,2013-02-14 23:12:00,
2013-02-14 17:17:00,31.3,23.0,29.89,North,-999,-999.0,-999.0,71,0.00,,,0.04,meteohub,2013-02-14 23:17:00,
2013-02-14 17:22:00,31.3,23.0,29.89,North,-999,-999.0,-999.0,71,0.00,,,0.04,meteohub,2013-02-14 23:22:00,
2013-02-14 17:27:00,31.5,22.8,29.89,North,-999,-999.0,-999.0,70,0.00,,,0.04,meteohub,2013-02-14 23:27:00,
2013-02-14 17:32:00,31.5,22.8,29.90,North,-999,-999.0,-999.0,70,0.00,,,0.04,meteohub,2013-02-14 23:32:00,
2013-02-14 17:37:00,31.5,22.5,29.90,North,-999,-999.0,-999.0,69,0.00,,,0.04,meteohub,2013-02-14 23:37:00,
2013-02-14 17:42:00,31.5,22.5,29.90,North,-999,-999.0,-999.0,69,0.00,,,0.04,meteohub,2013-02-14 23:42:00,
2013-02-14 17:47:00,31.5,22.5,29.90,North,-999,-999.0,-999.0,69,0.00,,,0.04,meteohub,2013-02-14 23:47:00,
2013-02-14 17:52:00,31.5,22.5,29.91,North,-999,-999.0,-999.0,69,0.00,,,0.04,meteohub,2013-02-14 23:52:00,
2013-02-14 17:57:00,31.5,22.1,29.91,North,-999,-999.0,-999.0,68,0.00,,,0.04,meteohub,2013-02-14 23:57:00,
2013-02-14 18:02:00,31.5,22.1,29.91,North,-999,-999.0,-999.0,68,0.00,,,0.04,meteohub,2013-02-15 00:02:00,
2013-02-14 18:07:00,31.5,21.7,29.91,North,-999,-999.0,-999.0,67,0.00,,,0.04,meteohub,2013-02-15 00:07:00,
2013-02-14 18:12:00,31.5,21.7,29.92,North,-999,-999.0,-999.0,67,0.00,,,0.04,meteohub,2013-02-15 00:12:00,
2013-02-14 18:17:00,31.5,21.4,29.92,North,-999,-999.0,-999.0,66,0.00,,,0.04,meteohub,2013-02-15 00:17:00,
2013-02-14 18:22:00,31.5,21.4,29.92,North,-999,-999.0,-999.0,66,0.00,,,0.04,meteohub,2013-02-15 00:22:00,
2013-02-14 18:27:00,31.5,21.4,29.92,North,-999,-999.0,-999.0,66,0.00,,,0.04,meteohub,2013-02-15 00:27:00,
2013-02-14 18:32:00,31.5,21.0,29.92,North,-999,-999.0,-999.0,65,0.00,,,0.04,meteohub,2013-02-15 00:32:00,
2013-02-14 18:37:00,31.5,21.0,29.93,North,-999,-999.0,-999.0,65,0.00,,,0.04,meteohub,2013-02-15 00:37:00,
2013-02-14 18:42:00,31.5,21.0,29.93,North,-999,-999.0,-999.0,65,0.00,,,0.04,meteohub,2013-02-15 00:42:00,
2013-02-14 18:47:00,31.5,20.7,29.94,North,-999,-999.0,-999.0,64,0.00,,,0.04,meteohub,2013-02-15 00:47:00,
2013-02-14 18:52:00,31.5,20.7,29.93,North,-999,-999.0,-999.0,64,0.00,,,0.04,meteohub,2013-02-15 00:52:00,
2013-02-14 18:57:00,31.3,20.5,29.94,North,-999,-999.0,-999.0,64,0.00,,,0.04,meteohub,2013-02-15 00:57:00,
2013-02-14 19:02:00,31.3,20.5,29.94,North,-999,-999.0,-999.0,64,0.00,,,0.04,meteohub,2013-02-15 01:02:00,
2013-02-14 19:07:00,31.1,20.7,29.94,North,-999,-999.0,-999.0,65,0.00,,,0.04,meteohub,2013-02-15 01:07:00,
2013-02-14 19:12:00,31.1,20.7,29.94,North,-999,-999.0,-999.0,65,0.00,,,0.04,meteohub,2013-02-15 01:12:00,
2013-02-14 19:17:00,30.9,20.5,29.94,North,-999,-999.0,-999.0,65,0.00,,,0.04,meteohub,2013-02-15 01:17:00,
2013-02-14 19:22:00,30.9,20.5,29.94,North,-999,-999.0,-999.0,65,0.00,,,0.04,meteohub,2013-02-15 01:22:00,
2013-02-14 19:27:00,31.1,20.7,29.94,North,-999,-999.0,-999.0,65,0.00,,,0.04,meteohub,2013-02-15 01:27:00,
2013-02-14 19:32:00,31.1,20.7,29.94,North,-999,-999.0,-999.0,65,0.00,,,0.04,meteohub,2013-02-15 01:32:00,
2013-02-14 19:42:00,31.3,20.8,29.94,North,-999,-999.0,-999.0,65,0.00,,,0.04,meteohub,2013-02-15 01:42:00,
2013-02-14 19:47:00,31.5,20.7,29.94,North,-999,-999.0,-999.0,64,0.00,,,0.04,meteohub,2013-02-15 01:47:00,
2013-02-14 19:52:00,31.5,20.7,29.94,North,-999,-999.0,-999.0,64,0.00,,,0.04,meteohub,2013-02-15 01:52:00,
2013-02-14 19:57:00,31.5,20.7,29.95,North,-999,-999.0,-999.0,64,0.00,,,0.04,meteohub,2013-02-15 01:57:00,
2013-02-14 20:02:00,31.5,20.3,29.95,North,-999,-999.0,-999.0,63,0.00,,,0.04,meteohub,2013-02-15 02:02:00,
2013-02-14 20:07:00,31.3,20.1,29.95,North,-999,-999.0,-999.0,63,0.00,,,0.04,meteohub,2013-02-15 02:07:00,
2013-02-14 20:12:00,31.1,19.9,29.95,North,-999,-999.0,-999.0,63,0.00,,,0.04,meteohub,2013-02-15 02:12:00,
2013-02-14 20:17:00,31.1,19.9,29.95,North,-999,-999.0,-999.0,63,0.00,,,0.04,meteohub,2013-02-15 02:17:00,
2013-02-14 20:22:00,31.1,19.9,29.95,North,-999,-999.0,-999.0,63,0.00,,,0.04,meteohub,2013-02-15 02:22:00,
2013-02-14 20:27:00,30.9,19.8,29.95,North,-999,-999.0,-999.0,63,0.00,,,0.04,meteohub,2013-02-15 02:27:00,
2013-02-14 20:32:00,30.9,19.8,29.95,NW,315,0.0,0.0,63,0.00,,,0.04,meteohub,2013-02-15 02:32:00,
2013-02-14 20:37:00,30.7,19.9,29.95,North,-999,-999.0,0.0,64,0.00,,,0.04,meteohub,2013-02-15 02:37:00,
2013-02-14 20:42:00,30.7,19.9,29.96,North,-999,-999.0,0.0,64,0.00,,,0.04,meteohub,2013-02-15 02:42:00,
2013-02-14 20:47:00,30.7,19.9,29.96,North,-999,-999.0,-999.0,64,0.00,,,0.04,meteohub,2013-02-15 02:47:00,
2013-02-14 20:52:00,30.6,19.8,29.96,North,-999,-999.0,-999.0,64,0.00,,,0.04,meteohub,2013-02-15 02:52:00,
2013-02-14 20:57:00,30.6,20.1,29.96,North,-999,-999.0,-999.0,65,0.00,,,0.04,meteohub,2013-02-15 02:57:00,
2013-02-14 21:02:00,30.7,19.9,29.96,North,-999,-999.0,-999.0,64,0.00,,,0.04,meteohub,2013-02-15 03:02:00,
2013-02-14 21:07:00,30.7,19.9,29.96,North,-999,-999.0,-999.0,64,0.00,,,0.04,meteohub,2013-02-15 03:07:00,
2013-02-14 21:12:00,30.7,19.9,29.96,North,-999,-999.0,-999.0,64,0.00,,,0.04,meteohub,2013-02-15 03:12:00,
2013-02-14 21:17:00,30.6,19.8,29.96,North,-999,-999.0,-999.0,64,0.00,,,0.04,meteohub,2013-02-15 03:17:00,
2013-02-14 21:22:00,30.4,19.6,29.97,North,-999,-999.0,-999.0,64,0.00,,,0.04,meteohub,2013-02-15 03:22:00,
2013-02-14 21:27:00,30.2,19.6,29.97,North,-999,-999.0,-999.0,64,0.00,,,0.04,meteohub,2013-02-15 03:27:00,
2013-02-14 21:32:00,30.0,19.8,29.97,North,-999,-999.0,-999.0,65,0.00,,,0.04,meteohub,2013-02-15 03:32:00,
2013-02-14 21:37:00,30.0,19.8,29.97,North,-999,-999.0,-999.0,65,0.00,,,0.04,meteohub,2013-02-15 03:37:00,
2013-02-14 21:42:00,29.8,19.6,29.97,North,-999,-999.0,-999.0,65,0.00,,,0.04,meteohub,2013-02-15 03:42:00,
2013-02-14 21:47:00,29.7,19.4,29.97,North,-999,-999.0,-999.0,65,0.00,,,0.04,meteohub,2013-02-15 03:47:00,
2013-02-14 21:52:00,29.7,19.4,29.97,North,-999,-999.0,-999.0,65,0.00,,,0.04,meteohub,2013-02-15 03:52:00,
2013-02-14 21:57:00,29.7,19.0,29.97,North,-999,-999.0,-999.0,64,0.00,,,0.04,meteohub,2013-02-15 03:57:00,
2013-02-14 22:02:00,29.5,18.9,29.97,North,-999,-999.0,-999.0,64,0.00,,,0.04,meteohub,2013-02-15 04:02:00,
2013-02-14 22:07:00,29.3,18.7,29.98,North,-999,-999.0,-999.0,64,0.00,,,0.04,meteohub,2013-02-15 04:07:00,
2013-02-14 22:12:00,29.3,18.7,29.98,North,-999,-999.0,-999.0,64,0.00,,,0.04,meteohub,2013-02-15 04:12:00,
2013-02-14 22:17:00,29.3,18.7,29.98,North,-999,-999.0,-999.0,64,0.00,,,0.04,meteohub,2013-02-15 04:17:00,
2013-02-14 22:22:00,29.3,18.7,29.98,North,-999,-999.0,-999.0,64,0.00,,,0.04,meteohub,2013-02-15 04:22:00,
2013-02-14 22:27:00,29.3,18.7,29.98,North,-999,-999.0,-999.0,64,0.00,,,0.04,meteohub,2013-02-15 04:27:00,
2013-02-14 22:32:00,29.1,18.5,29.98,North,-999,-999.0,-999.0,64,0.00,,,0.04,meteohub,2013-02-15 04:32:00,
2013-02-14 22:37:00,28.9,18.3,29.98,North,-999,-999.0,-999.0,64,0.00,,,0.04,meteohub,2013-02-15 04:37:00,
2013-02-14 22:42:00,28.9,18.3,29.98,North,-999,-999.0,-999.0,64,0.00,,,0.04,meteohub,2013-02-15 04:42:00,
2013-02-14 22:47:00,28.9,18.3,29.98,North,-999,-999.0,-999.0,64,0.00,,,0.04,meteohub,2013-02-15 04:47:00,
2013-02-14 22:52:00,28.8,18.1,29.98,North,-999,-999.0,-999.0,64,0.00,,,0.04,meteohub,2013-02-15 04:52:00,
2013-02-14 22:57:00,28.6,18.0,29.98,North,-999,-999.0,-999.0,64,0.00,,,0.04,meteohub,2013-02-15 04:57:00,
2013-02-14 23:02:00,28.6,18.3,29.99,North,-999,-999.0,-999.0,65,0.00,,,0.04,meteohub,2013-02-15 05:02:00,
2013-02-14 23:07:00,28.6,18.0,29.99,North,-999,-999.0,-999.0,64,0.00,,,0.04,meteohub,2013-02-15 05:07:00,
2013-02-14 23:12:00,28.8,18.5,29.99,North,-999,-999.0,-999.0,65,0.00,,,0.04,meteohub,2013-02-15 05:12:00,
2013-02-14 23:17:00,28.8,18.5,29.99,North,-999,-999.0,-999.0,65,0.00,,,0.04,meteohub,2013-02-15 05:17:00,
2013-02-14 23:22:00,28.8,18.5,29.99,North,-999,-999.0,-999.0,65,0.00,,,0.04,meteohub,2013-02-15 05:22:00,
2013-02-14 23:27:00,28.8,18.5,29.99,North,-999,-999.0,-999.0,65,0.00,,,0.04,meteohub,2013-02-15 05:27:00,
2013-02-14 23:32:00,28.8,18.5,29.99,North,-999,-999.0,-999.0,65,0.00,,,0.04,meteohub,2013-02-15 05:32:00,
2013-02-14 23:37:00,28.8,18.9,30.00,North,-999,-999.0,-999.0,66,0.00,,,0.04,meteohub,2013-02-15 05:37:00,
2013-02-14 23:42:00,28.6,18.7,29.99,North,-999,-999.0,-999.0,66,0.00,,,0.04,meteohub,2013-02-15 05:42:00,
2013-02-14 23:47:00,28.4,19.2,30.00,North,-999,-999.0,-999.0,68,0.00,,,0.04,meteohub,2013-02-15 05:47:00,
2013-02-14 23:52:00,28.2,18.7,30.00,North,-999,-999.0,-999.0,67,0.00,,,0.04,meteohub,2013-02-15 05:52:00,
2013-02-14 23:57:00,28.0,18.9,30.00,North,-999,-999.0,-999.0,68,0.00,,,0.04,meteohub,2013-02-15 05:57:00,